Flight Track Log - Related Links

Times and Time Zones

All times are in EDT time to prevent confusion due to time zone crossing. See the RPA4900 flight status page for this flight to view local times or setup timezone preferences in your user account.

Time Position Orientation Groundspeed Altitude Reporting Facility
EDT Latitude Longitude Course Direction KTS MPH feet Rate Location/Type
Mon 02:07:12 PM 40.6333 -74.1833 180° South 190 219 2,400  Level New York TRACON
Mon 02:08:00 PM 40.4371 -74.2247 157° South  Level FlightAware Approximate
Mon 02:08:12 PM 40.5833 -74.2333 217° Southwest 221 254 4,100  Level New York TRACON
Mon 02:09:00 PM 40.3527 -74.1787 157° South  Level FlightAware Approximate
Mon 02:09:12 PM 40.5167 -74.2667 201° Southwest 255 293 5,900  Level New York TRACON
Mon 02:10:00 PM 40.2668 -74.1611 194° South  Level FlightAware Approximate
Mon 02:10:06 PM 40.4500 -74.2333 159° South 276 318 6,000  Level New York TRACON
Mon 02:11:00 PM 40.1782 -74.1906 194° South  Level FlightAware Approximate
Mon 02:11:39 PM 40.3539 -74.1808 157° South 288 331 6,400  Level New York Center
Mon 02:12:00 PM 40.0921 -74.2167 180° South  Level FlightAware Approximate
Mon 02:12:39 PM 40.2878 -74.1694 173° South 286 329 8,400  Level New York Center
Mon 02:13:40 PM 40.2203 -74.1906 193° South 255 293 10,600 1,289 Climbing New York Center
Mon 02:14:40 PM 40.1467 -74.2142 194° South 265 305 11,000 198 Climbing New York Center
Mon 02:15:41 PM 40.0522 -74.2419 193° South 308 354 11,000 149 Level New York Center
Mon 02:16:41 PM 39.9736 -74.2842 202° Southwest 318 366 11,300 1,082 Climbing New York Center
Mon 02:17:43 PM 39.9094 -74.3458 216° Southwest 304 350 13,200 1,811 Climbing New York Center
Mon 02:18:27 PM 39.8594 -74.3914 215° Southwest 288 331 14,500 1,543 Climbing Washington Center
Mon 02:19:28 PM 39.8039 -74.4492 219° Southwest 272 313 15,900 1,397 Climbing Washington Center
Mon 02:20:53 PM 39.7339 -74.5447 226° Southwest 262 302 17,900 1,301 Climbing Washington Center
Mon 02:21:51 PM 39.6844 -74.6072 224° Southwest 257 296 19,000 504 Climbing Washington Center
Mon 02:22:52 PM 39.6308 -74.6781 226° Southwest 257 296 18,900  Descending Washington Center
Mon 02:23:52 PM 39.5731 -74.7542 225° Southwest 277 319 19,000 645 Climbing Washington Center
Mon 02:24:53 PM 39.5153 -74.8303 225° Southwest 292 336 20,200 1,150 Climbing Washington Center
Mon 02:25:52 PM 39.4636 -74.8981 225° Southwest 292 336 21,300 850 Climbing Washington Center
Mon 02:26:53 PM 39.4242 -74.9522 227° Southwest 275 316 21,900 347 Climbing Washington Center
Mon 02:27:53 PM 39.3642 -75.0278 224° Southwest 270 311 22,000 50 Climbing Washington Center
Mon 02:28:52 PM 39.3061 -75.1033 225° Southwest 281 323 22,000  Level Washington Center
Mon 02:29:52 PM 39.2272 -75.1494 204° Southwest 294 338 22,000  Level Washington Center
Mon 02:30:52 PM 39.1397 -75.1794 195° South 309 356 22,000  Level Washington Center
Mon 02:31:51 PM 39.0522 -75.2119 196° South 321 369 22,000  Level Washington Center
Mon 02:32:51 PM 38.9650 -75.2553 201° Southwest 327 376 22,000  Level Washington Center
Mon 02:33:51 PM 38.8775 -75.2903 197° South 327 376 22,000  Level Washington Center
Mon 02:34:52 PM 38.7919 -75.3281 199° South 327 376 22,000  Level Washington Center
Mon 02:35:53 PM 38.7025 -75.3603 196° South 327 376 22,000  Level Washington Center
Mon 02:36:51 PM 38.6150 -75.4003 200° South 327 376 22,000  Level Washington Center
Mon 02:37:52 PM 38.5253 -75.4350 197° South 332 382 22,000  Level Washington Center
Mon 02:38:50 PM 38.4378 -75.4725 199° South 332 382 22,000  Level Washington Center
Mon 02:39:52 PM 38.3525 -75.5097 199° South 332 382 22,000 -244 Level Washington Center
Mon 02:40:53 PM 38.2564 -75.5628 203° Southwest 332 382 21,500 -706 Descending Washington Center
Mon 02:41:51 PM 38.1689 -75.6022 200° South 332 382 20,600 -1,169 Descending Washington Center
Mon 02:42:51 PM 38.0792 -75.6233 190° South 332 382 19,200 -1,388 Descending Washington Center
Mon 02:43:52 PM 38.0000 -75.6497 195° South 332 382 17,800 -1,328 Descending Washington Center
Mon 02:44:53 PM 37.9042 -75.6708 190° South 343 395 16,500 -1,412 Descending Washington Center
Mon 02:45:51 PM 37.8122 -75.6942 191° South 343 395 15,000 -1,585 Descending Washington Center
Mon 02:46:39 PM 37.7308 -75.7178 193° South 329 379 13,700 -1,608 Descending Washington Center
Mon 02:47:28 PM 37.6581 -75.7333 190° South 320 368 12,400 -1,418 Descending Washington Center
Mon 02:48:29 PM 37.5744 -75.7569 193° South 305 351 11,100 -1,406 Descending Washington Center
Mon 02:49:36 PM 37.5014 -75.8039 207° Southwest 263 303 9,400 -1,406 Descending Washington Center
Mon 02:50:37 PM 37.4325 -75.8403 203° Southwest 263 303 8,100 -787 Descending Washington Center
Mon 02:51:38 PM 37.3678 -75.8742 203° Southwest 253 291 7,800 -908 Descending Washington Center
Mon 02:52:36 PM 37.3008 -75.9131 205° Southwest 248 285 6,300 -1,446 Descending Washington Center
Mon 02:53:30 PM 37.2486 -75.9414 203° Southwest 249 287 5,100 -1,148 Descending Washington Center
Mon 02:54:31 PM 37.1819 -75.9803 205° Southwest 243 280 4,100 -528 Descending Washington Center
Mon 02:55:35 PM 37.1192 -76.0139 203° Southwest 239 275 4,000 -259 Descending Washington Center
Mon 02:56:27 PM 37.0647 -76.0447 204° Southwest 245 282 3,600 -637 Descending Washington Center
Mon 02:57:28 PM 37.0167 -76.0836 213° Southwest 174 200 2,800 -787 Descending Washington Center

Login

Don't have an account? Register now (free) for customized features, flight alerts, and more!